Location: Hamburg
(53.5500°N, 10.0000°E)
Time: 22:47:05
(UTC+02:00)

A-11 Canister half - All Passes

Search period start: 30 August 2016 00:00
Search period end: 09 September 2016 00:00
Orbit: 1525 x 1685 km, 47.3° (Epoch: 29 August)

Date Brightness Start Highest point End Pass type
(mag) Time Alt. Az. Time Alt. Az. Time Alt. Az.
30 Aug - 01:05:31 10° W 01:15:03 50° SSW 01:24:40 10° SE visible
30 Aug - 03:10:54 10° W 03:18:28 25° SW 03:26:01 10° S visible
30 Aug - 18:35:18 10° S 18:41:49 20° SE 18:48:29 10° E daylight
30 Aug - 20:35:48 10° SW 20:44:56 46° SSE 20:54:21 10° E visible
30 Aug - 22:39:24 10° WSW 22:49:09 62° S 22:59:05 10° E visible
31 Aug - 00:43:55 10° W 00:53:29 51° SSW 01:03:08 10° SE visible
31 Aug - 02:49:14 10° W 02:56:58 26° SW 03:04:41 10° S visible
31 Aug - 18:14:04 10° S 18:20:21 19° SE 18:26:43 10° E daylight
31 Aug - 20:14:19 10° SW 20:23:24 45° SSE 20:32:44 10° E daylight
31 Aug - 22:17:50 10° WSW 22:27:33 62° S 22:37:30 10° E visible
01 Sep - 00:22:20 10° W 00:31:55 52° SSW 00:41:35 10° SE visible
01 Sep - 02:27:35 10° W 02:35:27 27° SW 02:43:20 10° S visible
01 Sep - 17:52:53 10° SSE 17:58:52 18° SE 18:04:57 10° E daylight
01 Sep - 19:52:51 10° SW 20:01:51 44° SSE 20:11:07 10° E daylight
01 Sep - 21:56:18 10° WSW 22:05:59 62° S 22:15:54 10° E visible
02 Sep - 00:00:45 10° W 00:10:21 53° SSW 00:20:04 10° SE visible
02 Sep - 02:05:55 10° W 02:13:55 28° SW 02:21:57 10° S visible
02 Sep - 17:31:43 10° SSE 17:37:23 17° SE 17:43:09 10° E daylight
02 Sep - 19:31:24 10° SW 19:40:18 42° SSE 19:49:29 10° E daylight
02 Sep - 21:34:44 10° WSW 21:44:24 61° S 21:54:18 10° E visible
02 Sep - 23:39:10 10° W 23:48:46 54° SSW 23:58:30 10° SE visible
03 Sep - 01:44:16 10° W 01:52:24 29° SW 02:00:34 10° SSE visible
03 Sep - 17:10:35 10° SSE 17:15:55 16° SE 17:21:20 10° E daylight
03 Sep - 19:09:56 10° SW 19:18:46 41° SSE 19:27:51 10° E daylight
03 Sep - 21:13:12 10° WSW 21:22:49 61° S 21:32:42 10° E visible
03 Sep - 23:17:36 10° W 23:27:12 55° SSW 23:36:57 10° SE visible
04 Sep - 01:22:38 10° W 01:30:52 30° SW 01:39:11 10° SSE visible
04 Sep - 16:49:29 10° SSE 16:54:27 15° SE 16:59:29 10° E daylight
04 Sep - 18:48:30 10° SSW 18:57:14 40° SSE 19:06:15 10° E daylight
04 Sep - 20:51:39 10° WSW 21:01:14 60° S 21:11:06 10° E visible
04 Sep - 22:56:02 10° W 23:05:38 55° SSW 23:15:24 10° ESE visible
05 Sep - 01:01:00 10° W 01:09:21 31° SW 01:17:47 10° SSE visible
05 Sep - 16:28:27 10° SSE 16:33:00 14° SE 16:37:35 10° E daylight
05 Sep - 18:27:04 10° SSW 18:35:42 39° SSE 18:44:37 10° E daylight
05 Sep - 20:30:07 10° WSW 20:39:39 60° S 20:49:30 10° E visible
05 Sep - 22:34:27 10° W 22:44:03 56° SSW 22:53:50 10° ESE visible
06 Sep - 00:39:23 10° W 00:47:49 32° SW 00:56:21 10° SSE visible
06 Sep - 16:07:29 10° SSE 16:11:32 13° SE 16:15:38 10° E daylight
06 Sep - 18:05:38 10° SSW 18:14:11 37° SE 18:22:59 10° E daylight
06 Sep - 20:08:35 10° WSW 20:18:05 59° S 20:27:54 10° E daylight
06 Sep - 22:12:53 10° W 22:22:28 57° SSW 22:32:17 10° ESE visible
07 Sep - 00:17:46 10° W 00:26:18 33° SW 00:34:56 10° SSE visible
07 Sep - 02:27:09 10° WSW 02:28:50 10° WSW 02:30:29 10° SW visible
07 Sep - 15:46:36 10° SE 15:50:05 12° ESE 15:53:35 10° ESE daylight
07 Sep - 17:44:13 10° SSW 17:52:39 36° SE 18:01:21 10° E daylight
07 Sep - 19:47:03 10° WSW 19:56:31 59° S 20:06:18 10° E daylight
07 Sep - 21:51:20 10° W 22:00:54 57° SSW 22:10:43 10° ESE visible
07 Sep - 23:56:09 10° W 00:04:46 34° SW 00:13:29 10° SSE visible
08 Sep - 02:04:37 10° WSW 02:07:22 11° WSW 02:10:07 10° SW visible
08 Sep - 15:25:52 10° SE 15:28:38 11° ESE 15:31:24 10° ESE daylight
08 Sep - 17:22:49 10° SSW 17:31:08 35° SE 17:39:43 10° E daylight
08 Sep - 19:25:31 10° WSW 19:34:57 58° SSE 19:44:41 10° E daylight
08 Sep - 21:29:45 10° W 21:39:19 58° SSW 21:49:08 10° ESE visible
08 Sep - 23:34:33 10° W 23:43:14 36° SW 23:52:02 10° SSE visible
